FW9731 Weather Reports


time (UTC)temp
C
wind
direction
speed
KPH
gust
KPH
rain 1hr
cm
rain 24hr
cm
rain mn
cm
humidity
%
barometer
mb
20260509045409 18 163 0.0 0.0 0.00 0.00 0.00 99 1012.1
20260509044906 18 163 0.0 0.0 0.00 0.00 0.00 99 1012.2
20260509044404 18 164 0.0 0.0 0.00 0.00 0.00 99 1012.4
20260509043901 18 159 0.0 0.0 0.00 0.00 0.00 99 1012.2
20260509043356 18 165 0.0 0.0 0.00 0.00 0.00 99 1012.1
20260509042852 18 165 0.0 0.0 0.00 0.00 0.00 99 1012.1
20260509042349 18 165 0.0 0.0 0.00 0.00 0.00 99 1012.1
20260509041846 18 165 0.0 0.0 0.00 0.00 0.00 99 1011.8
20260509041343 19 169 0.0 0.0 0.00 0.00 0.00 99 1012.0
20260509040841 18 165 0.0 0.0 0.00 0.00 0.00 99 1011.8
20260509040338 19 165 0.0 0.0 0.00 0.00 0.00 99 1011.8
20260509035835 19 175 0.0 0.0 0.00 0.00 0.00 99 1011.7
20260509035332 19 169 0.0 0.0 0.00 0.00 0.00 99 1011.7
20260509034828 19 166 0.0 0.0 0.00 0.00 0.00 99 1011.5
20260509034327 19 164 0.0 0.0 0.00 0.00 0.00 99 1011.5
20260509033823 19 164 0.0 0.0 0.00 0.00 0.00 99 1010.9
20260509033320 19 164 0.0 0.0 0.00 0.00 0.00 99 1011.0
20260509032817 20 164 0.0 0.0 0.00 0.00 0.00 99 1011.4
20260509032314 20 163 0.0 0.0 0.00 0.00 0.00 99 1011.2
20260509031812 20 161 0.0 0.0 0.00 0.00 0.00 99 1011.2
20260509031309 20 161 0.0 0.0 0.00 0.00 0.00 99 1011.0
20260509030807 20 159 0.0 0.0 0.00 0.00 0.00 99 1010.9
20260509030304 20 159 0.0 0.0 0.00 0.00 0.00 99 1011.0
20260509025801 20 177 0.0 0.0 0.00 0.00 0.00 99 1011.0
20260509025256 20 187 0.0 0.0 0.00 0.00 0.00 99 1010.8
20260509024752 20 182 0.0 0.0 0.00 0.00 0.00 99 1010.7
20260509024248 20 161 0.0 0.0 0.00 0.00 0.00 99 1010.5
20260509023746 21 160 0.0 0.0 0.00 0.00 0.00 99 1010.6
20260509023243 21 160 0.0 0.0 0.00 0.00 0.00 99 1010.7
20260509022739 21 160 0.0 0.0 0.00 0.00 0.00 99 1010.5
20260509022237 21 160 0.0 0.0 0.00 0.00 0.00 99 1010.7
20260509021733 21 162 0.0 0.0 0.00 0.00 0.00 98 1010.5
20260509021230 21 162 0.0 0.0 0.00 0.00 0.00 98 1010.3
20260509020728 21 162 0.0 0.0 0.00 0.00 0.00 98 1010.2
20260509020225 21 163 0.0 0.0 0.00 0.00 0.00 98 1010.3
20260509015723 21 162 0.0 0.0 0.00 0.00 0.00 97 1010.3
20260509015222 22 163 0.0 0.0 0.00 0.00 0.00 97 1010.2
20260509014718 22 163 0.0 0.0 0.00 0.00 0.00 97 1010.3
20260509014215 22 163 0.0 0.0 0.00 0.00 0.00 97 1010.4
20260509013711 22 162 0.0 0.0 0.00 0.00 0.00 96 1010.5
20260509013207 22 162 0.0 0.0 0.00 0.00 0.00 96 1010.6
20260509012704 22 161 0.0 0.0 0.00 0.00 0.00 96 1010.2
20260509012200 22 160 0.0 0.0 0.00 0.00 0.00 95 1010.1
20260509011658 22 160 0.0 0.0 0.00 0.00 0.00 95 1010.1
20260509011155 22 160 0.0 0.0 0.00 0.00 0.00 95 1010.2
20260509010653 22 159 0.0 0.0 0.00 0.00 0.00 94 1010.3
20260509010149 22 158 0.0 0.0 0.00 0.00 0.00 94 1010.5
20260509005647 22 172 0.0 0.0 0.00 0.00 0.00 94 1010.6
20260509005143 23 157 0.0 0.0 0.00 0.00 0.00 93 1010.4
20260509004639 23 161 0.0 0.0 0.00 0.00 0.00 93 1010.4
20260509004136 23 161 0.0 0.0 0.00 0.00 0.00 93 1010.1
20260509003635 23 161 0.0 0.0 0.00 0.00 0.00 92 1010.2
20260509003132 23 161 0.0 0.0 0.00 0.00 0.00 92 1010.3
20260509002629 23 157 0.0 0.0 0.00 0.00 0.00 92 1010.4
20260509002126 23 162 0.0 0.0 0.00 0.00 0.00 92 1010.5
20260509001624 23 160 0.0 0.0 0.00 0.00 0.00 91 1010.3
20260509001119 23 184 3.2 3.2 0.00 0.00 0.00 91 1010.2
20260509000618 23 171 0.0 1.6 0.00 0.00 0.00 91 1010.4
20260509000114 23 157 0.0 0.0 0.00 0.00 0.00 91 1010.2
20260508235612 23 158 0.0 0.0 0.00 0.00 0.00 90 1010.2
20260508235108 23 161 1.6 1.6 0.00 0.00 0.00 90 1010.2
20260508234606 23 178 1.6 1.6 0.00 0.00 0.00 90 1010.4
20260508234102 23 158 0.0 0.0 0.00 0.00 0.00 90 1010.3
20260508233601 23 175 4.8 4.8 0.00 0.00 0.00 89 1010.7
20260508233058 23 193 1.6 1.6 0.00 0.00 0.00 89 1010.7
20260508232555 23 188 1.6 1.6 0.00 0.00 0.00 89 1010.3
20260508232052 23 193 3.2 3.2 0.00 0.00 0.00 89 1010.3
20260508231550 23 157 0.0 0.0 0.00 0.00 0.00 88 1010.3
20260508231046 24 165 3.2 4.8 0.00 0.00 0.00 87 1010.4
20260508230543 24 156 0.0 0.0 0.00 0.00 0.00 88 1010.7
20260508230040 24 156 0.0 0.0 0.00 0.00 0.00 87 1010.6
20260508225537 24 155 0.0 0.0 0.00 0.00 0.00 88 1010.7
20260508225033 24 169 0.0 1.6 0.00 0.00 0.00 87 1010.7
20260508224532 24 155 0.0 0.0 0.00 0.00 0.00 87 1010.5
20260508224029 25 146 3.2 3.2 0.00 0.00 0.00 86 1010.5
20260508223527 25 158 0.0 0.0 0.00 0.00 0.00 86 1010.6
20260508223023 25 308 1.6 3.2 0.00 0.00 0.00 86 1010.5
20260508222521 24 172 1.6 1.6 0.00 0.00 0.00 87 1010.9
20260508222017 24 148 0.0 0.0 0.00 0.00 0.00 87 1010.6
20260508221514 24 156 0.0 0.0 0.00 0.00 0.00 87 1011.0
20260508221010 24 151 0.0 1.6 0.00 0.00 0.00 86 1011.0
20260508220507 24 158 0.0 0.0 0.00 0.00 0.00 87 1011.0
20260508220002 24 156 0.0 0.0 0.00 0.00 0.00 89 1010.9
20260508215459 23 155 0.0 0.0 0.00 0.00 0.00 88 1011.3
20260508214956 23 160 0.0 1.6 0.00 0.00 0.00 87 1011.7
20260508214454 23 168 1.6 1.6 0.00 0.00 0.00 87 1011.4
20260508213950 23 154 0.0 0.0 0.00 0.00 0.00 88 1011.4
20260508213448 24 127 1.6 1.6 0.00 0.00 0.00 87 1011.2
20260508212942 23 153 0.0 0.0 0.00 0.00 0.00 88 1011.4
20260508212440 23 148 0.0 0.0 0.00 0.00 0.00 88 1011.5
20260508211935 23 149 0.0 0.0 0.00 0.00 0.00 88 1011.7
20260508211431 23 151 0.0 0.0 0.00 0.00 0.00 88 1011.4
20260508210929 23 141 0.0 1.6 0.00 0.00 0.00 88 1012.1
20260508210425 23 165 1.6 1.6 0.00 0.00 0.00 88 1012.2
20260508205922 23 161 0.0 0.0 0.00 0.00 0.00 89 1012.3
20260508205419 23 163 0.0 0.0 0.00 0.00 0.00 88 1012.2
20260508204915 23 161 0.0 1.6 0.00 0.00 0.00 88 1012.2
20260508204413 23 154 0.0 1.6 0.00 0.00 0.00 88 1012.1
20260508203908 23 227 0.0 1.6 0.00 0.00 0.00 88 1012.3
20260508203404 22 153 0.0 0.0 0.00 0.00 0.00 88 1012.5
20260508202900 22 188 1.6 3.2 0.00 0.00 0.00 87 1012.6
20260508202357 22 163 1.6 1.6 0.00 0.00 0.00 87 1012.5
20260508201855 23 164 1.6 1.6 0.00 0.00 0.00 87 1012.4
20260508201351 23 165 0.0 1.6 0.00 0.00 0.00 87 1012.5
20260508200847 23 163 4.8 4.8 0.00 0.00 0.00 85 1012.4
20260508200345 23 154 0.0 1.6 0.00 0.00 0.00 86 1012.6
20260508195840 23 153 0.0 0.0 0.00 0.00 0.00 85 1012.6
20260508195337 23 165 0.0 0.0 0.00 0.00 0.00 85 1012.6
20260508194833 23 143 0.0 0.0 0.00 0.00 0.00 85 1012.6
20260508194331 23 154 0.0 0.0 0.00 0.00 0.00 85 1012.7
20260508193827 23 149 0.0 0.0 0.00 0.00 0.00 85 1012.8
20260508193324 23 146 0.0 0.0 0.00 0.00 0.00 86 1013.0
20260508192820 23 140 0.0 1.6 0.00 0.00 0.00 85 1012.8
20260508192318 23 159 0.0 0.0 0.00 0.00 0.00 86 1012.9
20260508191815 22 148 0.0 0.0 0.00 0.00 0.00 87 1012.9
20260508191312 22 216 3.2 3.2 0.00 0.00 0.00 87 1013.2
20260508190809 22 154 0.0 0.0 0.00 0.00 0.00 89 1013.2
20260508190305 21 154 0.0 0.0 0.00 0.00 0.00 89 1013.5
20260508185802 21 150 0.0 0.0 0.00 0.00 0.00 90 1013.5
20260508185259 21 152 0.0 0.0 0.00 0.00 0.00 90 1013.3
20260508184756 21 153 0.0 0.0 0.00 0.00 0.00 90 1013.2
20260508184254 21 150 0.0 0.0 0.00 0.00 0.00 91 1013.5
20260508183750 21 151 0.0 0.0 0.00 0.00 0.00 91 1013.7
20260508183247 21 153 0.0 0.0 0.00 0.00 0.00 92 1013.6
20260508182743 20 143 0.0 0.0 0.00 0.00 0.00 92 1013.7
20260508182239 20 147 0.0 0.0 0.00 0.00 0.00 92 1013.7
20260508181735 20 152 0.0 0.0 0.00 0.00 0.00 93 1014.0
20260508181232 20 152 0.0 0.0 0.00 0.00 0.00 93 1013.9
20260508180729 20 152 0.0 0.0 0.00 0.00 0.00 93 1013.9
20260508180226 20 142 0.0 0.0 0.00 0.00 0.00 93 1014.0
20260508175722 19 152 0.0 0.0 0.00 0.00 0.00 93 1014.1
20260508175219 19 149 0.0 0.0 0.00 0.00 0.00 94 1014.6
20260508174717 20 150 0.0 0.0 0.00 0.00 0.00 94 1014.4
20260508174214 19 153 0.0 0.0 0.00 0.00 0.00 94 1014.5
20260508173710 19 152 0.0 0.0 0.00 0.00 0.00 93 1014.6
20260508173206 19 153 0.0 0.0 0.00 0.00 0.00 93 1014.7
20260508172704 19 151 0.0 0.0 0.00 0.00 0.00 93 1015.0
20260508172200 19 151 0.0 0.0 0.00 0.00 0.00 93 1015.1
20260508171657 19 153 0.0 0.0 0.00 0.00 0.00 92 1015.1
20260508171153 19 156 0.0 0.0 0.00 0.00 0.00 92 1015.0
20260508170650 19 149 0.0 0.0 0.00 0.00 0.00 92 1015.2
20260508170148 19 153 0.0 0.0 0.00 0.00 0.00 92 1015.0
20260508165645 19 148 0.0 0.0 0.00 0.00 0.00 92 1014.9
20260508165142 19 153 0.0 0.0 0.00 0.00 0.00 91 1015.3
20260508164638 19 152 0.0 0.0 0.00 0.00 0.00 92 1015.5
20260508164135 19 154 0.0 0.0 0.00 0.00 0.00 91 1015.6
20260508163633 19 152 0.0 0.0 0.00 0.00 0.00 92 1015.3
20260508163130 18 152 0.0 0.0 0.00 0.00 0.00 91 1015.4
20260508162626 18 151 0.0 0.0 0.00 0.00 0.00 91 1015.6
20260508162123 19 144 0.0 0.0 0.00 0.00 0.00 91 1015.6
20260508161620 18 150 0.0 0.0 0.00 0.00 0.00 91 1015.2
20260508161118 18 148 0.0 0.0 0.00 0.00 0.00 90 1015.3
20260508160616 18 149 0.0 0.0 0.00 0.00 0.00 90 1015.3
20260508160113 19 150 0.0 0.0 0.00 0.00 0.00 90 1015.3
20260508155610 19 131 0.0 0.0 0.00 0.00 0.00 90 1015.3
20260508155107 18 144 0.0 0.0 0.00 0.00 0.00 90 1015.3
20260508154603 18 151 0.0 0.0 0.00 0.00 0.00 90 1015.6
20260508154100 19 127 1.6 1.6 0.00 0.00 0.00 90 1015.5
20260508153557 19 148 0.0 0.0 0.00 0.00 0.00 90 1015.4
20260508153054 18 152 0.0 0.0 0.00 0.00 0.00 90 1015.5
20260508152551 19 148 0.0 0.0 0.00 0.00 0.00 90 1015.4
20260508152046 18 153 0.0 0.0 0.00 0.00 0.00 90 1015.6
20260508151543 18 148 0.0 0.0 0.00 0.00 0.00 91 1015.5
20260508151040 18 144 0.0 0.0 0.00 0.00 0.00 92 1015.3
20260508150537 18 142 0.0 0.0 0.00 0.00 0.00 92 1015.5
20260508150033 18 153 0.0 0.0 0.00 0.00 0.00 92 1015.7
20260508145530 18 159 0.0 0.0 0.00 0.00 0.00 92 1015.8
20260508145026 18 156 0.0 0.0 0.00 0.00 0.00 92 1015.6
20260508144524 18 156 0.0 0.0 0.00 0.00 0.00 92 1015.7
20260508144021 17 154 0.0 0.0 0.00 0.00 0.00 93 1015.6
20260508143519 17 156 0.0 0.0 0.00 0.00 0.00 93 1015.6
20260508143015 17 156 0.0 0.0 0.00 0.00 0.00 94 1015.6
20260508142512 17 167 0.0 0.0 0.00 0.00 0.00 95 1015.8
20260508142008 17 156 0.0 0.0 0.00 0.00 0.00 96 1015.8
20260508141505 17 156 0.0 0.0 0.00 0.00 0.00 96 1015.8
20260508141003 17 156 0.0 0.0 0.00 0.00 0.00 97 1015.9
20260508140500 17 156 0.0 0.0 0.00 0.00 0.00 97 1015.9
20260508135955 17 156 0.0 0.0 0.00 0.00 0.00 98 1015.9
20260508135452 16 156 0.0 0.0 0.00 0.00 0.00 99 1016.0
20260508134948 17 165 0.0 0.0 0.00 0.00 0.00 99 1015.8
20260508134445 16 159 0.0 0.0 0.00 0.00 0.00 99 1015.7
20260508133941 16 156 0.0 0.0 0.00 0.00 0.00 99 1015.8
20260508133439 16 166 0.0 0.0 0.00 0.00 0.00 99 1016.0
20260508132936 16 161 0.0 0.0 0.00 0.00 0.00 99 1016.2
20260508132434 16 150 0.0 0.0 0.00 0.00 0.00 99 1016.1
20260508131931 15 159 0.0 0.0 0.00 0.00 0.00 99 1016.1
20260508131426 16 158 0.0 0.0 0.00 0.00 0.00 99 1015.9
20260508130923 15 156 0.0 0.0 0.00 0.00 0.00 99 1015.9
20260508130420 15 170 0.0 0.0 0.00 0.00 0.00 99 1015.9
20260508125916 15 164 0.0 0.0 0.00 0.00 0.00 99 1016.1
20260508125412 15 168 0.0 0.0 0.00 0.00 0.00 99 1015.9
20260508124910 15 167 0.0 0.0 0.00 0.00 0.00 99 1015.5
20260508124407 15 162 0.0 0.0 0.00 0.00 0.00 99 1015.5
20260508123905 15 161 0.0 0.0 0.00 0.00 0.00 99 1015.8
20260508123403 15 164 0.0 0.0 0.00 0.00 0.00 99 1016.0
20260508122859 15 160 0.0 0.0 0.00 0.00 0.00 99 1016.0
20260508122356 14 190 0.0 0.0 0.00 0.00 0.00 99 1015.7
20260508121853 14 175 0.0 0.0 0.00 0.00 0.00 99 1015.4
20260508121352 14 173 0.0 0.0 0.00 0.00 0.00 99 1015.7
20260508120849 14 161 0.0 0.0 0.00 0.00 0.00 99 1015.4
20260508120347 14 177 0.0 0.0 0.00 0.00 0.00 99 1015.5
20260508115844 14 192 0.0 0.0 0.00 0.00 0.00 99 1015.6
20260508115341 14 161 0.0 0.0 0.00 0.00 0.00 99 1015.8
20260508114838 14 162 0.0 0.0 0.00 0.00 0.00 99 1015.9
20260508114335 14 161 0.0 0.0 0.00 0.00 0.00 99 1015.7
20260508113832 15 158 0.0 0.0 0.00 0.00 0.00 99 1015.8
20260508113330 15 157 0.0 0.0 0.00 0.00 0.00 99 1015.6
20260508112826 15 161 0.0 0.0 0.00 0.00 0.00 99 1015.7
20260508112323 15 156 0.0 0.0 0.00 0.00 0.00 99 1015.6
20260508111819 15 156 0.0 0.0 0.00 0.00 0.00 99 1015.8
20260508111317 15 161 0.0 0.0 0.00 0.00 0.00 99 1015.8
20260508110814 15 161 0.0 0.0 0.00 0.00 0.00 99 1015.8
20260508110312 15 162 0.0 0.0 0.00 0.00 0.00 99 1015.8
20260508105811 15 161 0.0 0.0 0.00 0.00 0.00 99 1016.1
20260508105308 15 159 0.0 0.0 0.00 0.00 0.00 99 1015.9
20260508104805 15 164 0.0 0.0 0.00 0.00 0.00 99 1016.2
20260508104302 15 173 0.0 0.0 0.00 0.00 0.00 99 1016.1
20260508103759 15 156 0.0 0.0 0.00 0.00 0.00 99 1016.5
20260508103256 15 158 0.0 0.0 0.00 0.00 0.00 99 1016.1
20260508102753 15 152 0.0 0.0 0.00 0.00 0.00 99 1016.4
20260508102251 15 184 0.0 0.0 0.00 0.00 0.00 99 1016.4
20260508101748 15 161 0.0 0.0 0.00 0.00 0.00 99 1016.8
20260508101246 15 161 0.0 0.0 0.00 0.00 0.00 99 1016.9
20260508100743 15 161 0.0 0.0 0.00 0.00 0.00 99 1016.9
20260508100241 15 161 0.0 0.0 0.00 0.00 0.00 99 1017.1
20260508095737 14 187 0.0 0.0 0.00 0.00 0.00 99 1017.1
20260508095235 14 175 0.0 0.0 0.00 0.00 0.00 99 1017.1
20260508094731 14 163 0.0 0.0 0.00 0.00 0.00 99 1017.5
20260508094228 14 160 0.0 0.0 0.00 0.00 0.00 99 1017.0
20260508093726 14 185 0.0 0.0 0.00 0.00 0.00 99 1017.0
20260508093223 14 163 0.0 0.0 0.00 0.00 0.00 99 1017.0
20260508092720 14 176 0.0 0.0 0.00 0.00 0.00 99 1016.8
20260508092218 14 227 0.0 0.0 0.00 0.00 0.00 99 1016.8
20260508091716 13 188 0.0 1.6 0.00 0.00 0.00 99 1016.6
20260508091212 13 202 0.0 1.6 0.00 0.00 0.00 99 1016.5
20260508090710 13 236 1.6 1.6 0.00 0.00 0.00 99 1016.5
20260508090208 13 176 0.0 0.0 0.00 0.00 0.00 99 1016.4
20260508085703 13 164 0.0 0.0 0.00 0.00 0.00 99 1016.2
20260508085201 13 169 0.0 0.0 0.00 0.00 0.00 99 1016.4
20260508084657 12 177 0.0 0.0 0.00 0.00 0.00 99 1016.0
20260508084154 12 164 0.0 0.0 0.00 0.00 0.00 99 1016.1
20260508083652 12 164 0.0 0.0 0.00 0.00 0.00 99 1015.8
20260508083149 12 163 0.0 0.0 0.00 0.00 0.00 99 1015.9
20260508082644 12 163 0.0 0.0 0.00 0.00 0.00 99 1016.0
20260508082142 12 163 0.0 0.0 0.00 0.00 0.00 99 1015.9
20260508081639 12 163 0.0 0.0 0.00 0.00 0.00 99 1016.1
20260508081135 12 163 0.0 0.0 0.00 0.00 0.00 99 1016.1
20260508080633 12 163 0.0 0.0 0.00 0.00 0.00 99 1016.4
20260508080131 13 164 0.0 0.0 0.00 0.00 0.00 99 1016.4
20260508075627 13 165 0.0 0.0 0.00 0.00 0.00 99 1016.4
20260508075124 13 162 0.0 0.0 0.00 0.00 0.00 99 1016.6
20260508074622 13 170 0.0 0.0 0.00 0.00 0.00 99 1016.7
20260508074118 13 164 0.0 0.0 0.00 0.00 0.00 99 1016.7
20260508073616 13 164 0.0 0.0 0.00 0.00 0.00 99 1016.7
20260508073114 13 164 0.0 0.0 0.00 0.00 0.00 99 1016.5
20260508072608 13 164 0.0 0.0 0.00 0.00 0.00 99 1016.6
20260508072106 13 164 0.0 0.0 0.00 0.00 0.00 99 1016.8
20260508071604 13 160 0.0 0.0 0.00 0.00 0.00 99 1016.8
20260508071102 13 167 0.0 0.0 0.00 0.00 0.00 99 1016.7
20260508070559 13 161 0.0 0.0 0.00 0.00 0.00 99 1016.6
20260508070058 13 157 0.0 0.0 0.00 0.00 0.00 99 1016.8
20260508065555 12 159 0.0 0.0 0.00 0.00 0.00 99 1016.7
20260508065053 13 164 0.0 0.0 0.00 0.00 0.00 99 1017.0
20260508064550 13 175 0.0 0.0 0.00 0.00 0.00 99 1017.1
20260508064048 13 165 0.0 0.0 0.00 0.00 0.00 99 1016.8
20260508063545 13 162 0.0 0.0 0.00 0.00 0.00 99 1016.9
20260508063043 13 163 0.0 0.0 0.00 0.00 0.00 99 1017.0
20260508062540 13 164 0.0 0.0 0.00 0.00 0.00 99 1017.1
20260508062036 13 174 0.0 0.0 0.00 0.00 0.00 99 1016.9
20260508061534 13 164 0.0 0.0 0.00 0.00 0.00 99 1016.7
20260508061031 13 164 0.0 0.0 0.00 0.00 0.00 99 1017.1
20260508060528 13 164 0.0 0.0 0.00 0.00 0.00 99 1016.6
20260508060026 13 171 0.0 0.0 0.00 0.00 0.00 99 1016.5
20260508055521 13 164 0.0 0.0 0.00 0.00 0.00 99 1016.9
20260508055018 13 162 0.0 0.0 0.00 0.00 0.00 99 1016.7
20260508054514 13 163 0.0 0.0 0.00 0.00 0.00 99 1016.8
20260508054012 13 164 0.0 0.0 0.00 0.00 0.00 99 1017.1
20260508053508 13 164 0.0 0.0 0.00 0.00 0.00 99 1017.3
20260508053007 13 163 0.0 0.0 0.00 0.00 0.00 99 1017.0
20260508052504 13 173 0.0 0.0 0.00 0.00 0.00 99 1017.2
20260508052000 13 164 0.0 0.0 0.00 0.00 0.00 99 1017.5
20260508051456 13 165 0.0 0.0 0.00 0.00 0.00 99 1017.1
20260508050951 13 164 0.0 0.0 0.00 0.00 0.00 99 1017.4
20260508050448 13 173 0.0 0.0 0.00 0.00 0.00 99 1017.6
20260508045945 13 164 0.0 0.0 0.00 0.00 0.00 99 1017.4